Regional Weather Roundup
Issued by NWS

Home | Current Version | Previous Version | Graphics & Text | Print | Product List | Glossary Off
Versions: 1 2 3 4 5 6 7 8 9 10 11 12 13 14 15 16 17 18 19 20 21 22 23 24 25 26 27 28 29 30 31 32 33 34 35 36 37 38 39 40 41 42 43 44 45 46 47 48 49 50

000
ASUS43 KFSD 250202
RWRSD

WEATHER ROUNDUP FOR SOUTH DAKOTA
NATIONAL WEATHER SERVICE SIOUX FALLS SD
900 PM CDT MON APR 24 2017

NOTE: "FAIR" INDICATES FEW OR NO CLOUDS BELOW 12,000 FEET WITH NO
SIGNIFICANT WEATHER AND/OR OBSTRUCTIONS TO VISIBILITY.


SDZ001>005-009-010-012>017-250300-
NORTHWEST AND NORTH CENTRAL SOUTH DAKOTA

CITY           SKY/WX    TMP DP  RH WIND       PRES   REMARKS
BUFFALO          N/A     44  38  79 NE13      29.57R
FAITH            N/A     39  36  89 NE15      29.63S
MOBRIDGE       CLOUDY    41  32  70 N13       29.64R
$$

SDZ012>016-024>037-041>051-057-063-072>074-250300-
SOUTHWEST AND SOUTH CENTRAL SOUTH DAKOTA

CITY           SKY/WX    TMP DP  RH WIND       PRES   REMARKS
RAPID CTY ARPT CLOUDY    51  38  60 NE12      29.58S
PIERRE         CLEAR     42  35  76 N16       29.62R
CUSTER         RAIN      40  37  89 CALM      29.62F FOG
ELLSWORTH AFB  CLOUDY    53  39  59 NE15G21   29.59R
PHILIP         CLOUDY    47  40  76 NE10      29.62R
PINE RIDGE     CLOUDY    54  44  69 NE6       29.59R
SPEARFISH      CLOUDY    50  39  66 E10       29.61R
WINNER         FAIR      47  39  74 N7        29.60F
$$

SDZ004>011-016>023-039-040-250300-
NORTHEAST SOUTH DAKOTA

CITY           SKY/WX    TMP DP  RH WIND       PRES   REMARKS
ABERDEEN       CLOUDY    39  33  79 N18       29.64R
WATERTOWN      MOCLDY    44  39  82 NW21G26   29.56R
BROOKINGS      CLOUDY    53  43  68 NW9       29.54R
SISSETON         N/A     40  38  93 NW22G32   29.57R
$$

SDZ017-020-022-023-036>040-048>070-250300-
SOUTHEAST SOUTH DAKOTA

CITY           SKY/WX    TMP DP  RH WIND       PRES   REMARKS
SIOUX FALLS    PTCLDY    56  45  66 NW12      29.52R
HURON          CLOUDY    46  38  73 N15       29.61R
CHAMBERLAIN    CLOUDY    50  41  71 NW10      29.60F
MITCHELL       PTCLDY    51  40  65 NW16      29.59R
YANKTON        CLOUDY    52  39  62 W16       29.56R
$$

ABBREVIATIONS USED IN REMARKS
   TC - TEMPERATURE IN CELSIUS
  WCI - WIND CHILL INDEX
   HX - HEAT INDEX
  VSB - VISIBILITY





USA.gov is the U.S. government's official web portal to all federal, state and local government web resources and services.